Location: Buckeye Ditch
(40.9104°N, 122.9517°W)
Time: 15:52:43
(UTC+00:00)

A-11 Canister half - Pass Details

Date: 24 May 2025
Orbit: 1515 x 1684 km, 47.2° (Epoch: 14 June)

Event Time Altitude Azimuth Distance (km) Brightness Sun altitude
Rises 10:27:58 0° 288° (WNW) 4,723 11.4 -20.3°
Reaches altitude 10° 10:31:07 10° 291° (WNW) 3,720 10.9 -19.9°
Maximum altitude 10:40:25 65° 13° (NNE) 1,645 9.3 -18.9°
Drops below altitude 10° 10:49:35 10° 95° (E) 3,674 11.4 -17.8°
Sets 10:52:40 0° 99° (E) 4,661 12.0 -17.4°
